Regional Weather Roundup
Issued by NWS

Home | Current Version | Previous Version | Graphics & Text | Print | Product List | Glossary On
Versions: 1 2 3 4 5 6 7 8 9 10 11 12 13 14 15 16 17 18 19 20 21 22 23 24 25 26 27 28 29 30 31 32 33 34 35 36 37 38 39 40 41 42 43 44 45 46 47 48 49 50
000
ASUS45 KBOU 270207
RWRCO

WEATHER ROUNDUP FOR COLORADO
NATIONAL WEATHER SERVICE DENVER/BOULDER CO
800 PM MDT FRI MAY 26 2017

NOTE: "FAIR" INDICATES FEW OR NO CLOUDS BELOW 12000 FEET WITH NO
SIGNIFICANT WEATHER AND/OR OBSTRUCTIONS TO VISIBILITY.

COZ001>005-013-030-031-270300-
...NORTHWEST COLORADO...

CITY           SKY/WX    TMP DP  RH WIND       PRES   REMARKS
CRAIG          FAIR      52  38  58 N12G20    30.01R
HAYDEN         FAIR      52  34  50 N3        30.00R
MEEKER         FAIR      55  39  54 NE32G39   29.94R
RABBIT EARS PA NOT AVBL
STEAMBOAT SPGS NOT AVBL
WALDEN         NOT AVBL
$$

COZ006>008-011-270300-
...WEST CENTRAL VALLEYS...

CITY           SKY/WX    TMP DP  RH WIND       PRES   REMARKS
GRAND JUNCTION FAIR      76  18  11 W10       29.76R
MONTROSE       FAIR      73  10   9 SW13G18   29.87R
EAGLE          FAIR      68  14  12 W16G24    29.90R
RIFLE          FAIR      74   5   7 SW12      29.80R
DELTA          FAIR      79   9   7 SW14G23   29.81R
NUCLA          FAIR      72   9   8 SW14G24   29.92R
$$

COZ017>023-064>068-270300-
...SOUTHWEST COLORADO...

CITY           SKY/WX    TMP DP  RH WIND       PRES   REMARKS
DURANGO        FAIR      67   9  10 W10G22    29.97R
CORTEZ         FAIR      70  14  11 SW10      29.92R
PAGOSA SPRINGS FAIR      66   0   7 SW10      30.04S
TELLURIDE      FAIR      59   7  12 SW14G31   30.11R
WOLF CREEK PAS NOT AVBL
$$

COZ009-010-012-014-032>034-037-058>063-270300-
...CENTRAL COLORADO...

CITY           SKY/WX    TMP DP  RH WIND       PRES   REMARKS
ASPEN          FAIR      59  17  19 SW7       29.96S
BUENA VISTA    FAIR      62  10  13 SW8       29.97R
COPPER MTN     NOT AVBL
BERTHOUD PASS  NOT AVBL
COTTONWOOD PAS NOT AVBL
GUNNISON       FAIR      63  15  15 W12       29.98R
KREMMLING      NOT AVBL
LEADVILLE      FAIR      52   5  15 SW10G23   30.09R
SALIDA         FAIR      65  13  13 W8        30.02S
SUNLIGHT       NOT AVBL
WILKERSON PASS NOT AVBL
$$

COZ069>075-270300-
...SAN LUIS VALLEY/SANGRE DE CRISTO MOUNTAINS...

CITY           SKY/WX    TMP DP  RH WIND       PRES   REMARKS
ALAMOSA        FAIR      63  14  15 W12G22    30.01R
DEL NORTE      NOT AVBL
LA VETA PASS   NOT AVBL
SAGUACHE       NOT AVBL
$$

COZ035-036-038>040-270300-
...NORTHERN COLORADO FRONT RANGE...

CITY           SKY/WX    TMP DP  RH WIND       PRES   REMARKS
DENVER INTL AP FAIR      64  52  64 W7        29.81R
DMNS CITY PARK   N/A     63  49  59 NE13      29.82R
AURORA         PTCLDY    64  48  55 N7        29.84R
FRONT RANGE AP PTCLDY    68  45  42 SW9       29.82R
ERIE MUNI ARPT NOT AVBL
BOULDER MUN AP NOT AVBL
CENTENNIAL     FAIR      65  41  41 S13       29.82R
BROOMFIELD     PTCLDY    63  52  67 NW12      29.83R
FORT COLLINS   MOCLDY    62  50  64 N17       29.85R
LONGMONT       NOT AVBL
$$

COZ041-046-047-076>085-087-088-270300-
...PIKES PEAK/PALMER DIVIDE AND SOUTHERN FOOTHILLS...

CITY           SKY/WX    TMP DP  RH WIND       PRES   REMARKS
COLO. SPRINGS  FAIR      63  48  58 N22       29.86R
A. F. ACADEMY  FAIR      61  44  54 NE10      29.88R
SCHRIEVER AFB  FAIR      65  41  41 N10G18    29.86R
CHEYENNE MTN   FAIR      61  44  52 NW14      29.86R
ELLICOTT       FAIR     N/A N/A N/A NW8       29.83R THUNDER
FALCON         FAIR      58  41  53 NE15G28   29.92R
FORT CARSON    FAIR      66  47  49 NW16      29.83R
LIMON          LGT RAIN  58  46  64 SE7       29.88F
MONUMENT HILL  NOT AVBL
CANON CITY     NOT AVBL
WALSENBURG     FAIR      72  16  12 W22G31    29.86R
TRINIDAD       FAIR      73  16  11 W17       29.86R
$$

COZ042>045-048>051-090-091-270300-
...NORTHEAST COLORADO...

CITY           SKY/WX    TMP DP  RH WIND       PRES   REMARKS
GREELEY ARPT   FAIR      63  47  55 NE9       29.84R
AKRON          FAIR      58  50  75 SE20G28   29.81S
BURLINGTON     FAIR      64  52  64 NE13      29.84R
WRAY           CLOUDY    57  50  77 E13G24    29.86R
YUMA           NOT AVBL
STERLING       NOT AVBL
HOLYOKE        NOT AVBL
FORT MORGAN    FAIR      59  50  72 SE12      29.80R
$$

COZ086-089-092>099-270300-
...SOUTHEAST COLORADO...

CITY           SKY/WX    TMP DP  RH WIND       PRES   REMARKS
PUEBLO         FAIR      78  19  11 SW12      29.73R
LA JUNTA       FAIR      76  36  23 S10       29.73S
LAMAR          FAIR      73  48  41 SE14      29.74F
SPRINGFIELD      N/A     69  47  45 SE15      29.82S
$$



USA.gov is the U.S. government's official web portal to all federal, state and local government web resources and services.